Home   Weather   47°38'N, 10°49'E   Past weeks
Flag for Germany

Past Weather in 47°38'N, 10°49'E, Germany — Yesterday and Last 2 Weeks

Now
61 °F

Broken clouds.


Feels Like: 61 °F
Forecast: 58 / 46 °F
Wind: 2 mph from North

Location: Innsbruck-Flughafen

Current Time: May 21, 2019 at 4:51:38 pm

Latest Report: May 21, 2019 at 3:50 pm


Visibility: N/A

Pressure: 29.83 "Hg

Humidity: 68%

Dew Point: 50 °F

Location of 47°38'N, 10°49'ELocation

Past Weather in 47°38'N, 10°49'E — Graph

°F

47°38'N, 10°49'E Temperature Yesterday

Maximum temperature yesterday: 54 °F (at 12:20 am)
Minimum temperature yesterday: 50 °F (at 9:20 am)
Average temperature yesterday: 52 °F

High & Low Weather Summary for the Past Weeks

 TemperatureHumidityPressure
High70 °F (May 19, 2:50 pm)100% (May 21, 7:20 am)30.48 "Hg (May 21, 7:20 am)
Low32 °F (May 7, 4:20 am)35% (May 17, 2:20 pm)29.53 "Hg (May 19, 4:50 pm)
Average50 °F71%29.94 "Hg
* Reported May 6 3:20 pm — May 21 3:20 pm, 47°38'N, 10°49'E. Weather by CustomWeather, © 2019

Note: Actual official high and low records may vary slightly from our data, if they occured in-between our weather recording intervals... More about our weather records

Advertising

47°38'N, 10°49'E Weather History for the Previous 24 Hours

Scroll right to see more
 ConditionsComfort  
Time TempWeatherWind HumidityBarometerVisibility
3:20 pm
Tue, May 21
59 °FBroken clouds.2 mph72%29.83 "HgN/A
2:50 pm57 °FSprinkles. Broken clouds.5 mph77%29.83 "HgN/A
1:50 pm55 °FLight rain. Broken clouds.5 mph82%29.83 "HgN/A
1:20 pm57 °FLight rain. Broken clouds.5 mph77%29.83 "HgN/A
12:50 pm57 °FLight rain. Broken clouds.3 mph72%29.83 "HgN/A
12:20 pm55 °FSprinkles. Broken clouds.3 mph77%29.83 "HgN/A
11:50 am55 °FSprinkles. Broken clouds.3 mph77%29.83 "HgN/A
11:20 am55 °FBroken clouds.3 mph77%29.83 "HgN/A
10:50 am54 °FBroken clouds.2 mph82%29.83 "HgN/A
10:20 am52 °FBroken clouds.2 mph82%29.83 "HgN/A
9:50 am52 °FBroken clouds.1 mph82%29.83 "HgN/A
9:20 am50 °FBroken clouds.2 mph94%29.80 "HgN/A
8:50 am50 °FLight rain. Broken clouds.2 mph94%29.80 "HgN/A
8:20 am50 °FLight rain. Broken clouds.2 mph94%29.80 "HgN/A
7:50 am50 °FLight rain. Broken clouds.2 mph94%29.80 "HgN/A
7:20 am48 °FLight rain. Mostly cloudy.1 mph100%29.80 "HgN/A
6:50 am48 °FLight rain. Mostly cloudy.1 mph94%29.77 "HgN/A
6:20 am48 °FLight rain. Mostly cloudy.2 mph94%29.77 "HgN/A
5:50 am48 °FLight rain. Mostly cloudy.1 mph94%29.77 "HgN/A
5:20 am48 °FLight rain. Passing clouds.3 mph94%29.77 "HgN/A
4:50 am48 °FLight rain. Partly cloudy.3 mph94%29.77 "HgN/A
4:20 am48 °FLight rain. Passing clouds.2 mph94%29.77 "HgN/A
3:50 am48 °FLight rain. Partly cloudy.2 mph94%29.77 "HgN/A
3:20 am48 °FLight rain. Passing clouds.2 mph94%29.74 "HgN/A
2:50 am48 °FRain. Passing clouds.2 mph94%29.74 "HgN/A
1:50 am48 °FRain. Passing clouds.2 mph94%29.74 "HgN/A
1:20 am48 °FLight rain. Passing clouds.2 mph94%29.74 "Hg6 mi
12:50 am50 °FLight rain. Passing clouds.1 mph94%29.74 "HgN/A
12:20 am50 °FLight rain. Passing clouds.2 mph94%29.74 "HgN/A
11:50 pm
Mon, May 20
50 °FLight rain. Passing clouds.2 mph94%29.74 "HgN/A
11:20 pm50 °FLight rain. Partly cloudy.2 mph94%29.74 "HgN/A
10:50 pm50 °FRain. Partly cloudy.2 mph94%29.74 "HgN/A
10:20 pm50 °FLight rain. Partly cloudy.2 mph94%29.74 "HgN/A
9:50 pm50 °FLight rain. Passing clouds.1 mph94%29.74 "HgN/A
9:20 pm50 °FRain. Passing clouds.2 mph94%29.71 "HgN/A
8:50 pm50 °FLight rain. Passing clouds.1 mph94%29.71 "HgN/A
8:20 pm50 °FLight rain. Partly sunny.2 mph94%29.71 "HgN/A
7:50 pm52 °FLight rain. Partly sunny.2 mph88%29.71 "HgN/A
7:20 pm52 °FLight rain. Partly sunny.3 mph88%29.68 "HgN/A
6:50 pm52 °FLight rain. Partly sunny.3 mph88%29.68 "HgN/A
6:20 pm52 °FRain. Partly sunny.3 mph88%29.68 "HgN/A
5:50 pm52 °FRain. Partly sunny.1 mph88%29.68 "HgN/A
5:20 pm52 °FLight rain. Partly sunny.1 mph94%29.71 "HgN/A
4:50 pm52 °FLight rain. Broken clouds.1 mph94%29.68 "HgN/A
4:20 pm52 °FRain. Broken clouds.2 mph88%29.68 "HgN/A
Weather by CustomWeather, © 2019

See weather overview